Regional Weather Roundup
Issued by NWS

Home | Current Version | Previous Version | Graphics & Text | Print | Product List | Glossary On
Versions: 1 2 3 4 5 6 7 8 9 10 11 12 13 14 15 16 17 18 19 20 21 22 23 24 25 26 27 28 29 30 31 32 33 34 35 36 37 38 39 40 41 42 43 44 45 46 47 48 49 50
000
ASUS43 KDMX 202107
RWRIA

WEATHER ROUNDUP FOR IOWA
NATIONAL WEATHER SERVICE DES MOINES IA
400 PM CDT MON OCT 20 2014

NOTE: "FAIR" INDICATES FEW OR NO CLOUDS BELOW 12,000 FEET WITH NO
SIGNIFICANT WEATHER AND/OR OBSTRUCTIONS TO VISIBILITY.

* - THESE STATIONS ARE NOT NWS STATIONS...THUS NOT UNDER NWS
QUALITY CONTROL.  THEY ALSO DO NOT REPORT WEATHER SUCH
AS PRECIPITATION OR FOG.

IAZ001>003-012>014-020>022-031>034-043>046-202200-
   NORTHWEST IOWA

CITY           SKY/WX    TMP DP  RH WIND       PRES   REMARKS
CARROLL *      SUNNY     70  39  32 NW8G15    30.02F
CHEROKEE *     SUNNY     70  39  32 NW6       30.03S
DENISON *      SUNNY     70  37  30 NW9       30.01F
LE MARS *      SUNNY     72  37  28 NW13      30.04S
ORANGE CITY *  SUNNY     72  36  26 NW8       30.04S
SHELDON *      SUNNY     72  37  28 NW9       30.03S
SIOUX CITY     SUNNY     72  40  31 N9        30.04F
SPENCER        SUNNY     70  39  32 NW9G20    30.03S
STORM LAKE *   SUNNY     70  36  28 NW10G18   30.04S
$$

IAZ055>058-069>071-079>083-090>094-202200-
   SOUTHWEST IOWA

CITY           SKY/WX    TMP DP  RH WIND       PRES   REMARKS
ATLANTIC *     SUNNY     70  41  35 NW9G17    30.02F
AUDUBON *      SUNNY     70  27  19 NW9G16    30.04S
CLARINDA *     SUNNY     72  39  30 NW6       30.05S
COUNCIL BLFS * SUNNY     72  41  33 NW8       30.03S
CRESTON *      SUNNY     68  43  40 NW14      30.03S
HARLAN  *      SUNNY     70  39  32 NW12      30.06F
LAMONI         SUNNY     70  43  37 NW10      30.02F
RED OAK *      SUNNY     72  39  30 W7        30.04S
SHENANDOAH *   SUNNY     72  37  28 NW5G12    30.04F
$$

IAZ047>049-059>061-072>074-084-202200-
   CENTRAL IOWA

CITY           SKY/WX    TMP DP  RH WIND       PRES   REMARKS
AMES           SUNNY     70  39  32 NW12G20   30.00S
ANKENY *       SUNNY     70  41  35 NW13      29.99S
CHARITON *     SUNNY     70  41  35 NW14G21   30.01S
DES MOINES     SUNNY     72  38  29 N12       30.00S
GRINNELL*      SUNNY     70  39  32 NW13G20   29.99S
KNOXVILLE *    SUNNY     68  41  37 NW14G21   29.98F
MARSHALLTOWN   SUNNY     69  41  36 NW18      29.98S
PELLA *        SUNNY     72  43  35 NW13      30.00S
PERRY *          N/A     72  37  28 NW8       30.01S
$$

IAZ004>006-015-016-023>025-035-036-202200-
   NORTH CENTRAL IOWA

CITY           SKY/WX    TMP DP  RH WIND       PRES   REMARKS
ALGONA *       SUNNY     68  37  32 NW16G25   30.01S
CLARION *      SUNNY     68  39  34 NW14G23   30.00S
ESTHERVILLE    SUNNY     68  37  32 N15G22    30.02R
FORT DODGE *   SUNNY     70  41  35 NW5       30.02S
MASON CITY     SUNNY     66  41  40 NW18G25   30.00S
FOREST CITY *  SUNNY     64  41  42 NW18      30.00S
IOWA FALLS *     N/A     68  39  34 NW17      30.00S
$$

IAZ007>011-017>019-026>030-037>042-050>054-066-202200-
   NORTHEAST IOWA

CITY           SKY/WX    TMP DP  RH WIND       PRES   REMARKS
CEDAR RAPIDS   SUNNY     68  43  40 NW15      29.94S
CHARLES CITY * SUNNY     66  41  39 NW16      29.97S
CLINTON *      MOSUNNY   66  43  42 NW12G17   29.95R
DECORAH *      SUNNY     63  43  48 N12G17    29.94S
DUBUQUE        MOSUNNY   64  44  48 N15       29.93R
MONTICELLO *   SUNNY     68  43  40 NW13G20   29.93R
OELWEIN *      SUNNY     66  41  39 NW20G29   29.96R
WATERLOO       SUNNY     68  40  35 NW18G28   29.96R
$$

IAZ064-065-067-068-078-202200-
   EAST CENTRAL IOWA

CITY           SKY/WX    TMP DP  RH WIND       PRES   REMARKS
DAVENPORT      MOSUNNY   68  41  37 NW17G25   29.93S
IOWA CITY      SUNNY     68  44  42 NW13G24   29.96S
MT. PLEASANT * SUNNY     68  41  37 NW13G20   29.97S
MUSCATINE *    SUNNY     70  43  37 NW17G25   29.95S
QUAD CITIES    MOSUNNY   68  43  40 NW14G23   29.92S
$$

IAZ062-063-075>077-085>089-095>099-202200-
   SOUTHEAST IOWA

CITY           SKY/WX    TMP DP  RH WIND       PRES   REMARKS
BURLINGTON     SUNNY     69  44  40 NW9       29.96R
FAIRFIELD *    SUNNY     68  41  37 NW14G23   29.98R
FORT MADISON * SUNNY     72  45  37 NW12G17   29.97S
KEOKUK *       SUNNY     68  45  42 NW9G21    29.97R
OSKALOOSA *      N/A     70  39  32 NW15G22   29.99S
CENTERVILLE *  SUNNY     68  43  40 NW10      30.02S
OTTUMWA        LGT RAIN  69  44  40 NW13      29.99R
WASHINGTON *   SUNNY     70  43  37 W13G21    29.96S
$$

ABBREVIATIONS USED IN REMARKS
   TC - TEMPERATURES IN CELSIUS
  WCI - WIND CHILL INDEX
   HX - HEAT INDEX
  VSB - VISIBILITY
$$



USA.gov is the U.S. government's official web portal to all federal, state and local government web resources and services.